"TOA5","AWS1","CR1000","7964","CR1000.Std.14","CPU:AWS1_114.CR1","64363","TBL110"
"TIMESTAMP","RECORD","Wind_spd_WVc(1)","Wind_spd_WVc(2)","Air_Temp_Avg","Humidity_Avg","SW_upper_Wm2_Avg","Rain_Tot","Press_Avg","Issui_Tot","Depth_cm","SR50A_Raw","Quality","Ground_Temp_Avg(1)","Ground_Temp_Avg(2)","SW_lower_Wm2_Avg","Albedo_Avg","SWC_per(1)","SWC_per(2)","Period(1)","Period(2)"
"TS","RN","","","","","","","","","","","","","","","","","","",""
"","","WVc","WVc","Avg","Avg","Avg","Tot","Avg","Tot","Smp","Smp","Smp","Avg","Avg","Avg","Avg","Smp","Smp","Smp","Smp"
"2018-03-09 00:00:00",330973,1.157,152.2,8.46,90,0.1847235,0,856.0289,0,62.18,2.519,170,0.494,0.979,0,0,56,66.45,34.75,37.12
"2018-03-09 00:10:00",330974,1.263,200.6,8.43,90.5,0.1611418,0,856.0036,0,62.32,2.518,170,0.503,0.978,0.04926408,0.08,56,66.51,34.75,37.14
"2018-03-09 00:20:00",330975,1.686,149.1,8.8,91.1,0.07074516,0.5,855.7888,0.5,62.41,2.515,169,0.498,0.977,0,0,55.95,66.45,34.74,37.12
"2018-03-09 00:30:00",330976,0.626,317.9,8.56,93.4,0.0314423,0,855.8014,0,62.98,2.512,174,0.5,0.979,0,0,55.95,66.45,34.74,37.12
"2018-03-09 00:40:00",330977,0.456,326.2,8.42,99.5,0.1886538,0.5,855.7761,0.5,62.15,2.521,174,0.505,0.976,0,0,55.95,66.45,34.74,37.12
"2018-03-09 00:50:00",330978,0.494,105.1,8.34,100,0.3026321,1,855.498,0.5,62.86,2.514,186,0.504,0.977,0,0,55.95,66.45,34.74,37.12
"2018-03-09 01:00:00",330979,0.841,162.1,8.49,100,0.3301441,0,855.357,0.5,62.14,2.518,190,0.504,0.969,0.01515818,0.024,55.89,66.45,34.72,37.12
"2018-03-09 01:10:00",330980,0.91,95.8,8.81,97.3,0.2318869,0,855.2748,0,62.24,2.518,177,0.504,0.967,0,0,55.89,66.45,34.72,37.12
"2018-03-09 01:20:00",330981,1.243,143.3,8.75,98.9,0.286911,0,855.1653,0,61.87,2.521,185,0.504,0.973,0,0,55.89,66.45,34.72,37.12
"2018-03-09 01:30:00",330982,0.744,133.1,8.87,98,0.2358172,0,854.7756,0,62.08,2.519,183,0.504,0.967,0,0,55.89,66.39,34.72,37.11
"2018-03-09 01:40:00",330983,0.737,345,8.6,100,0.2083052,1,854.843,0.5,61.5,2.526,189,0.503,0.971,0,0,55.89,66.45,34.72,37.12
"2018-03-09 01:50:00",330984,0.54,299,6.95,99.2,0.02358172,1,855.3674,2.5,61.84,2.533,186,0.504,0.947,0,0,55.89,66.39,34.72,37.11
"2018-03-09 02:00:00",330985,0.431,269.7,5.56,100,0.03930287,2,855.7487,3,61.64,2.537,190,0.504,0.923,0,0,55.95,66.45,34.74,37.12
"2018-03-09 02:10:00",330986,0.249,123.4,5.813,100,0.5659613,1.5,855.6666,2.5,61.35,2.541,170,0.48,0.938,0,0,55.95,66.45,34.74,37.12
"2018-03-09 02:20:00",330987,0.828,158.1,5.666,100,0.2122355,1,855.159,0.5,61.38,2.538,180,0.431,0.942,0.07200135,0.096,56,66.45,34.75,37.12
"2018-03-09 02:30:00",330988,0.526,2.838,6.525,100,0.9629203,0,854.9504,0.5,61.5,2.534,182,0.418,0.961,0.1288445,0.124,56.12,66.45,34.78,37.12
"2018-03-09 02:40:00",330989,0.456,327.9,6.678,100,0.5384493,0.5,854.3902,0,61.56,2.535,187,0.401,0.967,0,0,56.12,66.45,34.78,37.12
"2018-03-09 02:50:00",330990,0.544,348.5,6.301,100,0.0903966,0,854.169,0.5,61.6,2.535,187,0.402,0.976,0,0,56.23,66.45,34.8,37.12
"2018-03-09 03:00:00",330991,0.268,291.2,6.209,100,0.1807932,0.5,854.0995,0,60.95,2.543,190,0.402,0.978,0,0,56.23,66.51,34.8,37.14
"2018-03-09 03:10:00",330992,0.008,206.2,5.467,100,0,1,854.3123,1,61.31,2.542,186,0.425,0.978,0,0,56.23,66.51,34.8,37.14
"2018-03-09 03:20:00",330993,0.083,130.4,5.154,100,0.003930287,1.5,854.7167,2,61.17,2.546,182,0.425,0.976,0,0,56.23,66.51,34.8,37.14
"2018-03-09 03:30:00",330994,0.492,278.6,5.157,100,0.4205407,1,854.5039,1.5,61.11,2.544,191,0.418,0.978,0,0,56.23,66.51,34.8,37.14
"2018-03-09 03:40:00",330995,0.287,221.4,5.145,100,0.3340755,1.5,854.822,1.5,61.37,2.542,190,0.418,0.96,0,0,56.23,66.51,34.8,37.14
"2018-03-09 03:50:00",330996,0.384,304.6,5.065,100,0.2987058,1,854.6956,1,61.17,2.546,191,0.423,0.933,0,0,56.29,66.51,34.82,37.14
"2018-03-09 04:00:00",330997,0.298,4.878,4.653,100,0.09040011,0.5,854.7462,0.5,60.92,2.549,176,0.433,0.891,0,0,56.29,66.51,34.82,37.14
"2018-03-09 04:10:00",330998,1.215,285.8,4.738,100,0.2201117,1.5,855.4096,1,61.21,2.546,188,0.455,0.879,0,0,56.41,66.45,34.84,37.12
"2018-03-09 04:20:00",330999,1.333,290.1,4.589,100,0,1,855.5002,1.5,61.12,2.548,192,0.493,0.893,0,0,56.41,66.45,34.84,37.12
"2018-03-09 04:30:00",331000,0.645,259.3,4.452,100,0.007862648,1,855.5865,0.5,61.37,2.546,190,0.526,0.913,0,0,56.46,66.45,34.86,37.12
"2018-03-09 04:40:00",331001,1.142,269.2,4.335,100,0,0.5,855.8119,1,60.8,2.553,192,0.549,0.928,0,0,56.52,66.51,34.87,37.14
"2018-03-09 04:50:00",331002,0.29,359.2,4.035,100,0.007863155,1,856.3237,0.5,60.72,2.555,194,0.573,0.935,0,0,56.52,66.51,34.87,37.14
"2018-03-09 05:00:00",331003,1.057,291.6,3.787,100,0,1,856.8503,1,61.06,2.552,194,0.531,0.941,0,0,56.52,66.51,34.87,37.14
"2018-03-09 05:10:00",331004,1.088,257.7,3.351,100,0,1.5,856.3763,2,60.7,2.56,180,0.493,0.967,0.1781692,0,56.52,66.51,34.87,37.14
"2018-03-09 05:20:00",331005,1.094,242.1,2.48,100,0,0.5,856.2433,1,60.9,2.56,189,0.458,0.996,0.1364701,0,56.52,66.51,34.87,37.14
"2018-03-09 05:30:00",331006,0.492,228.9,2.371,100,0,0,855.9947,0.5,60.84,2.561,189,0.422,1.023,0,0,56.52,66.51,34.87,37.14
"2018-03-09 05:40:00",331007,0.691,274,2.054,100,0,0.5,856.4069,0,60.9,2.562,189,0.42,1.023,0,0,56.58,66.45,34.88,37.12
"2018-03-09 05:50:00",331008,0.758,315.1,1.79,100,0,0.5,856.9031,0.5,60.92,2.563,190,0.425,1.023,0.394247,0,56.58,66.51,34.88,37.14
"2018-03-09 06:00:00",331009,0.482,264.9,1.449,100,0,0.5,857.4863,0.5,60.66,2.568,169,0.453,1.014,1.22444,0,56.52,66.51,34.87,37.14
"2018-03-09 06:10:00",331010,0.506,271.5,1.059,100,0,0,857.5336,0.5,60.51,2.57,192,0.472,0.919,0.9211732,0,56.52,66.51,34.87,37.14
"2018-03-09 06:20:00",331011,0.604,166.2,0.796,100,0.02752139,0.5,857.3721,0,60.61,2.571,169,0.501,0.871,0.9514999,0.273,56.41,66.51,34.84,37.14
"2018-03-09 06:30:00",331012,0.975,167.9,0.604,100,1.549061,0.5,857.3112,0.5,60.61,2.571,190,0.504,0.908,1.523916,1.105,56.41,66.51,34.84,37.14
"2018-03-09 06:40:00",331013,0.887,165,0.522,100,2.708891,0,857.3892,0.5,60.21,2.575,192,0.504,0.934,1.774111,0.686,56.35,66.51,34.83,37.14
"2018-03-09 06:50:00",331014,1.02,174.2,0.563,100,9.376929,0,857.5831,0.5,60.67,2.57,193,0.504,0.936,5.000113,0.542,56.29,66.51,34.82,37.14
"2018-03-09 07:00:00",331015,0.879,174.6,0.664,100,11.50001,0.5,857.6252,0,60.37,2.573,195,0.504,0.936,6.266253,0.554,56.23,66.51,34.8,37.14
"2018-03-09 07:10:00",331016,1.209,190.3,0.679,100,12.09372,0,857.7347,0.5,59.96,2.577,176,0.505,0.937,6.668101,0.557,56.18,66.51,34.79,37.14
"2018-03-09 07:20:00",331017,0.445,263.9,0.61,100,19.26975,0,857.8233,0.5,60.46,2.573,192,0.516,0.948,10.39114,0.541,56.18,66.51,34.79,37.14
"2018-03-09 07:30:00",331018,0.414,309.4,0.414,100,25.84119,0,857.8506,0,60.17,2.576,190,0.528,0.96,13.80379,0.537,56.12,66.51,34.78,37.14
"2018-03-09 07:40:00",331019,0.461,242.6,0.439,100,18.82397,0.5,857.7833,0.5,60.81,2.57,192,0.551,0.983,10.05884,0.536,56.06,66.51,34.76,37.14
"2018-03-09 07:50:00",331020,0.554,239.4,0.354,100,19.90652,0,857.7913,0,60.78,2.571,170,0.564,0.996,10.67747,0.536,56.12,66.45,34.78,37.12
"2018-03-09 08:00:00",331021,0.266,350,0.292,100,19.10527,0.5,858.0764,0,60.67,2.572,174,0.578,1.011,10.44293,0.547,56.06,66.45,34.76,37.12
"2018-03-09 08:10:00",331022,0.336,349.3,0.127,100,28.83198,0,858.1137,0,60.59,2.574,170,0.586,1.02,15.61566,0.541,56.06,66.51,34.76,37.14
"2018-03-09 08:20:00",331023,0.719,321,0.142,100,33.22159,0,858.0595,0.5,60.89,2.571,192,0.59,1.023,18.3083,0.55,56,66.51,34.75,37.14
"2018-03-09 08:30:00",331024,0.787,284.5,0.128,100,53.47256,0.5,858.039,0,60.75,2.572,174,0.591,1.025,29.91228,0.559,55.95,66.51,34.74,37.14
"2018-03-09 08:40:00",331025,0.643,323.9,0.032,100,33.19818,0,858.3616,0,60.89,2.571,190,0.587,1.025,19.18817,0.577,56,66.45,34.75,37.12
"2018-03-09 08:50:00",331026,0.572,297.4,-0.19,100,42.63338,0,858.4094,0.5,61.01,2.571,191,0.586,1.025,25.52862,0.599,55.95,66.45,34.74,37.12
"2018-03-09 09:00:00",331027,0.788,321.2,-0.342,100,41.07986,0.5,858.5626,0,60.78,2.575,171,0.586,1.025,24.78916,0.603,55.89,66.45,34.72,37.12
"2018-03-09 09:10:00",331028,0.809,291.2,-0.584,100,42.59012,0,858.6993,0,60.92,2.574,188,0.573,1.025,25.91542,0.61,55.89,66.45,34.72,37.12
"2018-03-09 09:20:00",331029,0.663,292.4,-0.59,100,80.8815,0,858.7658,0.5,60.82,2.575,197,0.574,1.024,49.43042,0.611,55.89,66.45,34.72,37.12
"2018-03-09 09:30:00",331030,1.014,316,-0.703,100,80.2011,0.5,858.8119,0,61.32,2.57,175,0.574,1.016,48.79713,0.609,55.89,66.51,34.72,37.14
"2018-03-09 09:40:00",331031,0.777,286.7,-0.66,100,78.27001,0,858.916,0,61.54,2.568,194,0.576,1.019,49.56694,0.633,55.83,66.51,34.71,37.14
"2018-03-09 09:50:00",331032,1.234,293.1,-0.749,100,79.1628,0.5,858.9329,0,61.06,2.573,192,0.57,1.011,50.94727,0.644,55.83,66.45,34.71,37.12
"2018-03-09 10:00:00",331033,0.167,308.6,-0.815,100,64.87039,0,858.959,0.5,61,2.574,201,0.56,0.985,44.67888,0.689,55.77,66.39,34.7,37.11
"2018-03-09 10:10:00",331034,0,0,-0.926,100,75.27309,0,858.9694,0,60.98,2.575,190,0.561,0.971,55.47128,0.737,55.77,66.45,34.7,37.12
"2018-03-09 10:20:00",331035,0,0,-0.893,100,98.42648,0.5,858.9571,0,60.46,2.579,182,0.563,0.986,76.34316,0.776,55.77,66.39,34.7,37.11
"2018-03-09 10:30:00",331036,0,0,-0.906,100,72.34303,0,858.8788,0,60.6,2.578,197,0.563,0.976,58.51636,0.809,55.72,66.45,34.68,37.12
"2018-03-09 10:40:00",331037,0,0,-0.985,100,59.67493,0,858.9889,0,60.68,2.578,185,0.578,0.972,52.11904,0.872,55.72,66.39,34.68,37.11
"2018-03-09 10:50:00",331038,0,0,-1.079,100,60.30421,0.5,858.9668,0.5,61.66,2.569,189,0.574,0.962,57.22704,0.95,55.72,66.39,34.68,37.11
"2018-03-09 11:00:00",331039,0,0,-1.064,100,56.09594,0,858.9648,0,60.48,2.58,205,0.566,0.955,57.7276,1.029,55.66,66.02,34.67,37.03
"2018-03-09 11:10:00",331040,0,0,-1.155,100,57.16964,0,858.9196,0,61.48,2.57,192,0.563,0.959,64.79613,1.134,55.66,65.83,34.67,36.99
"2018-03-09 11:20:00",331041,0,0,-1.321,100,53.29959,0,858.7734,0,60.64,2.58,371,0.573,0.956,64.1363,1.203,55.66,65.71,34.67,36.96
"2018-03-09 11:30:00",331042,0,0,-1.363,100,48.16314,0.5,858.8304,0,61.38,2.573,194,0.581,0.933,61.48181,1.276,55.66,65.59,34.67,36.93
"2018-03-09 11:40:00",331043,0,0,-1.41,100,44.17511,0,858.9393,0,62,2.567,192,0.568,0.935,58.55808,1.322,55.66,65.52,34.67,36.92
"2018-03-09 11:50:00",331044,0,0,-1.314,100,76.16981,0,858.7219,0.5,61.96,2.566,192,0.567,0.952,106.2403,1.393,55.6,65.46,34.65,36.91
"2018-03-09 12:00:00",331045,0,0,-1.212,100,61.46837,0,858.6479,0,62.16,2.564,192,0.573,0.959,85.54287,1.391,55.6,65.4,34.65,36.89
"2018-03-09 12:10:00",331046,0,0,-1.058,100,59.47436,0,858.4964,0,62.2,2.564,182,0.587,0.996,84.28389,1.416,55.6,65.28,34.65,36.87
"2018-03-09 12:20:00",331047,0,0,-1.273,100,52.05285,0,858.4403,0,62.28,2.563,185,0.591,1.001,74.31438,1.428,55.6,65.16,34.65,36.84
"2018-03-09 12:30:00",331048,0,0,-1.266,100,56.52463,0,858.3559,0,62.4,2.562,190,0.593,1.015,82.85046,1.465,55.55,65.09,34.64,36.82
"2018-03-09 12:40:00",331049,0,0,-1.326,100,44.91025,0,858.2945,0,62.32,2.564,188,0.589,1,67.10506,1.493,55.55,65.03,34.64,36.81
"2018-03-09 12:50:00",331050,0,0,-1.558,100,35.6085,0.5,858.2797,0,61.97,2.568,185,0.588,1.011,53.68048,1.507,55.55,64.97,34.64,36.8
"2018-03-09 13:00:00",331051,0,0,-1.809,100,34.19265,0,858.3856,0,62.55,2.563,183,0.588,1.006,53.10788,1.552,55.55,64.97,34.64,36.8
"2018-03-09 13:10:00",331052,0,0,-1.819,100,27.47544,0,858.4106,0,62.74,2.561,191,0.59,1.004,44.56087,1.62,55.49,64.85,34.63,36.77
"2018-03-09 13:20:00",331053,0,0,-1.788,100,44.21754,0,858.4151,0,62.75,2.561,189,0.588,0.982,73.25121,1.655,55.49,64.85,34.63,36.77
"2018-03-09 13:30:00",331054,0,0,-1.733,100,32.855,0,858.4644,0,62.73,2.562,190,0.583,0.994,53.77832,1.631,55.55,64.66,34.64,36.73
"2018-03-09 13:40:00",331055,0,0,-1.892,100,36.07248,0,858.5135,0,62.74,2.561,189,0.588,0.96,58.91716,1.632,55.49,64.42,34.63,36.68
"2018-03-09 13:50:00",331056,0,0,-1.846,100,42.02739,0,858.4481,0,62.6,2.562,192,0.581,0.947,69.70263,1.655,55.49,64.36,34.63,36.66
"2018-03-09 14:00:00",331057,0,0,-1.716,100,48.26528,0,858.4117,0,62.52,2.562,182,0.586,0.947,80.82528,1.674,55.49,64.3,34.63,36.65
"2018-03-09 14:10:00",331058,0,0,-1.808,100,36.5176,0,858.4384,0,62.4,2.564,193,0.593,0.961,60.31001,1.649,55.49,64.3,34.63,36.65
"2018-03-09 14:20:00",331059,0,0,-1.773,100,36.26591,0,858.4894,0,62.03,2.569,174,0.59,0.946,60.84094,1.675,55.43,64.3,34.61,36.65
"2018-03-09 14:30:00",331060,0,0,-1.802,100,45.15049,0,858.5166,0,61.91,2.57,195,0.593,0.945,77.79176,1.721,55.49,64.3,34.63,36.65
"2018-03-09 14:40:00",331061,0,0,-2.008,100,32.0183,0,858.6757,0,62.21,2.568,189,0.591,0.934,53.24909,1.659,55.43,64.24,34.61,36.63
"2018-03-09 14:50:00",331062,0,0,-1.993,100,35.56584,0,858.6754,0.5,62.47,2.565,186,0.591,0.931,61.2429,1.72,55.43,64.24,34.61,36.63
"2018-03-09 15:00:00",331063,0,0,-2.016,100,31.36543,0,858.663,0,62.53,2.564,189,0.59,0.93,53.32114,1.701,55.43,64.24,34.61,36.63
"2018-03-09 15:10:00",331064,0,0,-2.055,100,25.32045,0,858.6399,0,62.61,2.564,190,0.59,0.917,42.48323,1.678,55.43,64.18,34.61,36.62
"2018-03-09 15:20:00",331065,0,0,-2.137,100,25.66262,0,858.5993,0,62.51,2.565,190,0.58,0.911,43.49574,1.695,55.37,64.18,34.6,36.62
"2018-03-09 15:30:00",331066,0,0,-2.252,100,22.18194,0,858.6544,0,62.49,2.566,189,0.58,0.911,37.11358,1.671,55.37,64.12,34.6,36.61
"2018-03-09 15:40:00",331067,0,0,-2.289,100,17.72589,0,858.7117,0,62.39,2.567,174,0.568,0.921,29.38901,1.658,55.37,64.12,34.6,36.61
"2018-03-09 15:50:00",331068,0,0,-2.37,100,15.85773,0,858.7267,0,62.43,2.567,178,0.573,0.905,26.20741,1.653,55.37,64.12,34.6,36.61
"2018-03-09 16:00:00",331069,0,0,-2.541,100,15.18913,0,858.7552,0,62.43,2.568,170,0.54,0.901,24.25447,1.597,55.37,64.05,34.6,36.59
"2018-03-09 16:10:00",331070,0,0,-2.529,100,12.39279,0,858.9806,0,62.45,2.568,170,0.524,0.898,19.72666,1.592,55.37,64.05,34.6,36.59
"2018-03-09 16:20:00",331071,0,0,-2.722,100,10.74094,0,858.9901,0,62.48,2.569,170,0.503,0.91,16.16964,1.505,55.32,64.05,34.59,36.59
"2018-03-09 16:30:00",331072,0,0,-2.818,100,8.829515,0,859.0077,0,62.83,2.565,180,0.495,0.933,13.21557,1.498,55.32,63.99,34.59,36.58
"2018-03-09 16:40:00",331073,0,0,-3.048,100,8.156978,0,859.0521,0,63,2.565,189,0.494,0.937,11.45982,1.406,55.32,64.05,34.59,36.59
"2018-03-09 16:50:00",331074,0,0,-3.027,100,6.017442,0,859.1469,0,62.9,2.566,190,0.503,0.939,8.3844,1.391,55.26,63.99,34.57,36.58
"2018-03-09 17:00:00",331075,0,0,-3.14,100,4.817887,0,859.2734,0,62.8,2.567,190,0.506,0.939,5.942268,1.231,55.32,63.93,34.59,36.57
"2018-03-09 17:10:00",331076,0,0,-3.218,100,3.575069,0,859.2523,0,62.86,2.566,189,0.506,0.939,4.065164,1.141,55.26,63.93,34.57,36.57
"2018-03-09 17:20:00",331077,0,0,-3.391,100,2.477771,0,859.4357,0,62.9,2.568,189,0.506,0.939,1.9757,0.764,55.26,63.99,34.57,36.58
"2018-03-09 17:30:00",331078,0,0,-3.481,100,1.341142,0,859.4926,0,63,2.567,191,0.506,0.939,0.6294936,0.471,55.26,63.93,34.57,36.57
"2018-03-09 17:40:00",331079,0,0,-3.528,100,0.8062586,0,859.4483,0,63.06,2.566,191,0.506,0.939,0.1023875,0.109,55.2,63.99,34.56,36.58
"2018-03-09 17:50:00",331080,0,0,-3.506,100,0.4640903,0,859.345,0,62.9,2.568,190,0.506,0.939,0.04550556,0.112,55.26,63.87,34.57,36.55
"2018-03-09 18:00:00",331081,0,0,-3.63,100,0.1061902,0,859.4883,0,62.84,2.569,190,0.506,0.941,0,0,55.26,63.87,34.57,36.55
"2018-03-09 18:10:00",331082,0,0,-3.665,100,0,0,859.4968,0,62.9,2.568,192,0.506,0.938,0,0,55.2,63.93,34.56,36.57
"2018-03-09 18:20:00",331083,0,0,-3.618,100,0,0,859.5052,0,62.78,2.57,186,0.506,0.941,0.00379213,0,55.26,63.93,34.57,36.57
"2018-03-09 18:30:00",331084,0,0,-3.796,100,0.003932969,0,859.676,0,62.74,2.57,191,0.506,0.934,0.01137639,0,55.2,63.69,34.56,36.51
"2018-03-09 18:40:00",331085,0,0,-3.861,100,0.007865938,0,859.754,0,62.53,2.573,173,0.505,0.911,0.00379213,0.016,55.2,63.57,34.56,36.49
"2018-03-09 18:50:00",331086,0,0,-3.923,100,0.04719562,0,859.735,0,62.73,2.571,181,0.505,0.909,0.02275278,0,55.2,63.51,34.56,36.47
"2018-03-09 19:00:00",331087,0,0,-4.008,100,0,0,859.7603,0,62.61,2.573,178,0.506,0.914,0,0,55.2,63.57,34.56,36.49
"2018-03-09 19:10:00",331088,0,0,-4.068,100,0,0,859.8361,0,62.85,2.571,186,0.502,0.922,0.03412917,0,55.2,63.51,34.56,36.47
"2018-03-09 19:20:00",331089,0,0,-4.182,100,0.007865938,0,859.9901,0,62.79,2.572,187,0.497,0.93,0.007584261,0,55.15,63.51,34.55,36.47
"2018-03-09 19:30:00",331090,0,0,-4.269,100,0.03146422,0,860.049,0,62.99,2.571,174,0.492,0.934,0.003792179,0,55.15,63.51,34.55,36.47
"2018-03-09 19:40:00",331091,0,0,-4.295,100,0,0,860.2239,0,62.78,2.572,173,0.505,0.944,0.05688428,0,55.2,63.45,34.56,36.46
"2018-03-09 19:50:00",331092,0,0,-4.317,100,0.007866608,0,860.46,0,62.86,2.572,173,0.507,0.96,0.09481047,0,55.15,63.45,34.55,36.46
"2018-03-09 20:00:00",331093,0,0,-4.443,100,0.07867061,0,860.5085,0,62.74,2.574,169,0.516,0.974,0.01517056,0.016,55.15,63.39,34.55,36.44
"2018-03-09 20:10:00",331094,0,0,-4.631,100,0.1691446,0,860.5085,0,63.02,2.572,189,0.511,0.979,0,0,55.09,63.39,34.53,36.44
"2018-03-09 20:20:00",331095,0,0,-4.681,100,0,0,860.5085,0,62.81,2.574,182,0.511,0.985,0.01517139,0,55.09,63.32,34.53,36.43
"2018-03-09 20:30:00",331096,0,0,-4.702,100,0,0,860.5085,0,62.32,2.579,171,0.517,0.992,0.02655043,0,55.09,63.32,34.53,36.43
"2018-03-09 20:40:00",331097,0,0,-4.729,100,0,0,860.5316,0,62.69,2.576,179,0.527,1.002,0.08344677,0,55.09,63.32,34.53,36.43
"2018-03-09 20:50:00",331098,0,0,-4.898,99.8,0.02753808,0,860.5972,0.5,62.91,2.574,172,0.536,1.008,0.007586308,0,55.09,63.26,34.53,36.42
"2018-03-09 21:00:00",331099,0,0,-4.864,99.3,0,0,860.834,0.5,64.81,2.555,395,0.545,1.013,0.05310483,0,55.03,63.26,34.52,36.42
"2018-03-09 21:10:00",331100,0,0,-5.026,97.8,0.03147327,0,860.8564,0.5,63.52,2.569,200,0.568,1.016,0,0,54.97,63.26,34.51,36.42
"2018-03-09 21:20:00",331101,0,0,-5.069,96.6,0,0,860.8865,0.5,64.89,2.555,190,0.562,1.019,0,0,54.97,63.2,34.51,36.4
"2018-03-09 21:30:00",331102,0,0,-5.086,96.2,0,0,861.0359,0,65,2.554,181,0.571,1.024,0.0455206,0,54.92,63.2,34.49,36.4
"2018-03-09 21:40:00",331103,0,0,-5.119,95.3,0,0,861.0839,0,65.12,2.553,190,0.58,1.024,0.007586821,0,54.92,63.2,34.49,36.4
"2018-03-09 21:50:00",331104,0,0,-5.124,95.5,0,0,861.0949,0,64.88,2.555,170,0.585,1.026,0.06828165,0,54.86,63.14,34.48,36.39
"2018-03-09 22:00:00",331105,0,0,-5.152,95.4,0,0.5,861.0966,0,64.87,2.556,170,0.583,1.026,0.07586852,0,54.86,63.14,34.48,36.39
"2018-03-09 22:10:00",331106,0,0,-5.224,95.4,0,0,861.0869,0,65.02,2.554,189,0.591,1.026,0.06069483,0,54.86,63.14,34.48,36.39
"2018-03-09 22:20:00",331107,0,0,-5.255,95.9,0,0.5,861.0809,0,64.71,2.558,187,0.594,0.998,0.03414084,0,54.8,63.08,34.46,36.38
"2018-03-09 22:30:00",331108,0,0,-5.295,96.1,0,0,861.0893,0.5,65.7,2.548,182,0.594,0.982,0.02276056,0,54.8,63.14,34.46,36.39
"2018-03-09 22:40:00",331109,0,0,-5.325,95.9,0,0,861.0114,0.5,65.3,2.552,197,0.594,0.964,0,0,54.8,63.08,34.46,36.38
"2018-03-09 22:50:00",331110,0,0,-5.326,96.3,0,0.5,860.8616,0,67.11,2.534,195,0.594,0.96,0.0569014,0,54.75,63.08,34.45,36.38
"2018-03-09 23:00:00",331111,0,0,-5.333,96.9,0,0.5,860.8005,0.5,67.28,2.532,188,0.59,0.955,0.03034742,0,54.75,63.08,34.45,36.38
"2018-03-09 23:10:00",331112,0,0,-5.368,96.4,0,0,860.8426,0.5,67.92,2.526,199,0.593,0.952,0.007586854,0,54.75,63.08,34.45,36.38
"2018-03-09 23:20:00",331113,0,0,-5.417,96.6,0,0.5,860.851,0.5,69.56,2.509,197,0.585,0.956,0.003793427,0,54.75,63.02,34.45,36.36
"2018-03-09 23:30:00",331114,0,0,-5.338,97.3,0,0.5,860.8427,0.5,71.46,2.49,256,0.581,0.948,0.0417277,0,54.69,63.02,34.44,36.36
"2018-03-09 23:40:00",331115,0,0,-5.356,99,0,0.5,860.8468,0,69.96,2.505,190,0.575,0.945,0.03034742,0,54.69,63.02,34.44,36.36
"2018-03-09 23:50:00",331116,0,0,-5.399,99.9,0,0,860.851,0,70.63,2.499,171,0.585,0.951,0.01896713,0,54.69,62.96,34.44,36.35
